Fort Irwin/Barstow, Bicycle L, CA

5:46 PM PDT on August 18, 2017 (GMT -0700)
Fort Irwin/Barstow, Bicycle L

Weather History for KBYS - March, 2014

Change the Weather History Date:

Saturday, March 8, 2014

  Actual Average (KDAG) Record (KDAG)
Temperature  
Mean Temperature 61 °F -  
Max Temperature 68 °F 70 °F 89 °F (1972)
Min Temperature 54 °F 46 °F 31 °F (1961)
Degree Days  
Heating Degree Days 4    
Growing Degree Days 11 (Base 50)    
Moisture  
Dew Point 19 °F    
Average Humidity 20    
Maximum Humidity 27    
Minimum Humidity 14    
Precipitation  
Precipitation 0.00 in - - ()
Sea Level Pressure  
Sea Level Pressure 30.16 in    
Wind  
Wind Speed 10 mph (North)    
Max Wind Speed 20 mph    
Max Gust Speed 32 mph    
Visibility 10 miles    
Events      
Averages and records for this station are not official NWS values.
T = Trace of Precipitation, MM = Missing Value Source: NWS Daily Summary

Daily Weather History Graph

Daily Weather History Graph

Search for Another Location

Airport or City:

Trip Planner

Search our weather history database for the weather conditions in past years. The results will help you decide how hot, cold, wet, or windy it might be!

Date:

Astronomy

Mar. 08, 2014 Rise Set
Actual Time 6:06 AM PST 5:48 PM PST
Civil Twilight 5:41 AM PST 6:13 PM PST
Nautical Twilight 5:11 AM PST 6:43 PM PST
Astronomical Twilight 4:42 AM PST 7:12 PM PST
Moon 11:05 AM PST (3/8) 12:36 AM PST (3/8)
Length of Visible Light 12h 32m
Length of Day
11h 41m
First Quarter, 53% of the Moon is Illuminated
Mar 8
First Quarter
Mar 16
Full
Mar 23
Last Quarter
Mar 30
New
Apr 7
First Quarter

Hourly Weather History & Observations

Time (PST) Temp. Dew Point Humidity Pressure Visibility Wind Dir Wind Speed Gust Speed Precip Events Conditions
12:55 AM 58.1 °F 18.0 °F 21% 30.06 in 10.0 mi North 13.8 mph 18.4 mph N/A   Clear
1:55 AM 56.8 °F 19.4 °F 23% 30.07 in 10.0 mi NNW 13.8 mph 19.6 mph N/A   Clear
2:55 AM 56.7 °F 20.3 °F 24% 30.07 in 10.0 mi North 15.0 mph 23.0 mph N/A   Clear
3:55 AM 57.4 °F 20.1 °F 24% 30.10 in 10.0 mi NNW 6.9 mph 11.5 mph N/A   Clear
4:55 AM 55.6 °F 20.7 °F 26% 30.13 in 10.0 mi North 3.5 mph - N/A   Clear
5:55 AM 54.5 °F 21.0 °F 27% 30.16 in 10.0 mi NW 9.2 mph - N/A   Clear
6:55 AM 56.3 °F 21.4 °F 26% 30.19 in 10.0 mi North 6.9 mph - N/A   Clear
7:55 AM 58.6 °F 22.3 °F 25% 30.20 in 10.0 mi NNE 8.1 mph - N/A   Clear
8:55 AM 60.4 °F 20.7 °F 22% 30.21 in 10.0 mi NE 16.1 mph 24.2 mph N/A   Clear
9:55 AM 61.0 °F 20.7 °F 21% 30.22 in 10.0 mi NE 19.6 mph 32.2 mph N/A   Clear
10:55 AM 63.0 °F 20.1 °F 19% 30.20 in 10.0 mi NNE 18.4 mph 27.6 mph N/A   Clear
11:55 AM 64.9 °F 19.8 °F 18% 30.19 in 10.0 mi NE 16.1 mph 20.7 mph N/A   Clear
12:55 PM 66.6 °F 18.9 °F 16% 30.17 in 10.0 mi NNE 9.2 mph 19.6 mph N/A   Clear
1:55 PM 67.5 °F 17.2 °F 15% 30.16 in 10.0 mi NNE 6.9 mph 21.9 mph N/A   Clear
2:55 PM 67.6 °F 16.7 °F 14% 30.15 in 10.0 mi NNE 9.2 mph - N/A   Clear
3:55 PM 68.9 °F 18.3 °F 15% 30.14 in 10.0 mi Variable 6.9 mph - N/A   Clear
4:55 PM 67.3 °F 16.9 °F 14% 30.14 in 10.0 mi NNW 4.6 mph - N/A   Clear
5:55 PM 64.4 °F 16.7 °F 16% 30.17 in 10.0 mi North 8.1 mph - N/A   Clear
6:55 PM 62.2 °F 18.1 °F 18% 30.18 in 10.0 mi NW 4.6 mph - N/A   Clear
7:55 PM 60.3 °F 18.7 °F 20% 30.19 in 10.0 mi NNW 4.6 mph - N/A   Clear
8:55 PM 60.1 °F 18.3 °F 20% 30.20 in 10.0 mi NNW 2.3 mph - N/A   Clear
9:55 PM 59.7 °F 18.0 °F 20% 30.21 in 10.0 mi NNW 4.6 mph - N/A   Clear
10:55 PM 58.1 °F 19.2 °F 22% 30.22 in 10.0 mi North 4.6 mph - N/A   Clear
11:55 PM 56.1 °F 19.4 °F 24% 30.23 in 10.0 mi NNW 3.5 mph - N/A   Clear